Regional Weather Roundup
Issued by NWS

Home | Current Version | Previous Version | Graphics & Text | Print | Product List | Glossary On
Versions: 1 2 3 4 5 6 7 8 9 10 11 12 13 14 15 16 17 18 19 20 21 22 23 24 25 26 27 28 29 30 31 32 33 34 35 36 37 38 39 40 41 42 43 44 45 46 47 48 49 50
000
ASUS43 KIND 031759
RWRIN

WEATHER ROUNDUP FOR INDIANA
NATIONAL WEATHER SERVICE INDIANAPOLIS IN
200 PM EDT FRI JUL 03 2015

NOTE: "FAIR" INDICATES FEW OR NO CLOUDS BELOW 12,000 FEET WITH NO
SIGNIFICANT WEATHER AND/OR OBSTRUCTIONS TO VISIBILITY.

* - STATION DOES NOT REPORT WEATHER SUCH AS PRECIPITATION OR FOG.

+ - STATION NOT QUALITY CONTROLLED BY THE NATIONAL WEATHER SERVICE.
    USE DATA WITH CAUTION...ESPECIALLY DEWPOINT AND RELATIVE
    HUMIDITY OBSERVATIONS.

INZ001>003-010>013-019-020-031900-
NORTHWEST INDIANA

CITY           SKY/WX    TMP DP  RH WIND       PRES   REMARKS
KNOX *+        PTSUNNY   72  54  53 E9        29.95F
MONTICELLO +   PTSUNNY   73  62  68 NE5       29.94S
6HR MIN TEMP:  62; 6HR MAX TEMP:  74;

RENSSELAER +   CLOUDY    73  61  64 CALM      29.95F

$$

LMZ046-743>745-031900-
SOUTHERN LAKE MICHIGAN

STATION/POSITION TIME  TEMP    WIND        PRES    WAVE
                       AIR SEA DIR/SP/G            HT
                 (UTC) (F)     (DEG/KT/KT) (MB)    (FT)
BURNS HARBOR     1700   63      10/  9/ 10 1015.6S
MICHIGAN CITY    1700   65     340/  2/  3   N/A
5NW MICH CITY    1700   63 64  360/  8/ 10   N/A     1

$$

INZ004-005-014>016-021>024-031900-
NORTH CENTRAL INDIANA

CITY           SKY/WX    TMP DP  RH WIND       PRES   REMARKS
ELKHART        PTSUNNY   73  54  49 E7        29.98F
GOSHEN         PTSUNNY   73  55  53 NE6       29.97F
6HR MIN TEMP:  61; 6HR MAX TEMP:  74;

SOUTH BEND     PTSUNNY   73  54  51 E5        29.98S
6HR MIN TEMP:  61; 6HR MAX TEMP:  74;


$$

INZ006>009-017-018-025>027-031900-
NORTHEAST INDIANA

CITY           SKY/WX    TMP DP  RH WIND       PRES   REMARKS
ANGOLA *+        N/A     72  54  53 E6        29.97F
FORT WAYNE     PTSUNNY   73  58  59 E7        29.96F
6HR MIN TEMP:  60; 6HR MAX TEMP:  74;


$$

INZ028-029-035-036-043>045-051>053-031900-
WEST CENTRAL INDIANA

CITY           SKY/WX    TMP DP  RH WIND       PRES   REMARKS
CRAWFORDSVL +  PTSUNNY   73  60  63 NE6       29.92F
6HR MIN TEMP:  62; 6HR MAX TEMP:  73;

GREENCASTLE +  PTSUNNY   72  61  68 NE7       29.91F
LAFAYETTE      CLOUDY    72  61  68 N7        29.94S
6HR MIN TEMP:  62; 6HR MAX TEMP:  73;

TERRE HAUTE    PTSUNNY   77  67  71 E8        29.89F
6HR MIN TEMP:  69; 6HR MAX TEMP:  77;


$$

INZ030>032-037>040-046>048-054>057-064-065-031900-
CENTRAL INDIANA

CITY           SKY/WX    TMP DP  RH WIND       PRES   REMARKS
COLUMBUS       CLOUDY    70  63  78 N7        29.90
FRANKFORT +    PTSUNNY   72  63  72 NE8       29.96S
6HR MIN TEMP:  63; 6HR MAX TEMP:  73;

GREENWOOD *+   CLOUDY    72  63  73 SE5       29.92S
INDIANAPOLIS   CLOUDY    73  62  68 N10       29.90S
6HR MIN TEMP:  63; 6HR MAX TEMP:  73; 6HR PCP: TRACE;

-EAGLE CREEK   PTSUNNY   73  62  68 NE7       29.91S
6HR MIN TEMP:  62; 6HR MAX TEMP:  74;

KOKOMO *+      CLOUDY    72  61  68 NE8       29.94F
6HR MIN TEMP:  61; 6HR MAX TEMP:  72;

MT COMFORT *+  CLOUDY    73  61  64 NE7       29.92S
SHELBYVILLE    RAIN      68  65  90 CALM      29.91S FOG
6HR MIN TEMP:  65; 6HR MAX TEMP:  69; 6HR PCP:  0.36;


$$

INZ033-034-041-042-049-050-058-059-031900-
EAST CENTRAL INDIANA

CITY           SKY/WX    TMP DP  RH WIND       PRES   REMARKS
MUNCIE         CLOUDY    74  61  63 E9        29.94S
6HR MIN TEMP:  62; 6HR MAX TEMP:  75;


$$

INZ060-061-067>069-081>083-085>088-031900-
SOUTHWEST INDIANA

CITY           SKY/WX    TMP DP  RH WIND       PRES   REMARKS
EVANSVILLE     HVY RAIN  72  68  87 CALM      29.87F FOG
6HR MIN TEMP:  71; 6HR MAX TEMP:  80; 6HR PCP:  0.49;

HUNTINGBURG *+ MOSUNNY   75  72  88 NW7       29.87F
6HR MIN TEMP:  70; 6HR MAX TEMP:  77; 6HR PCP:  0.26;


$$

INZ062-063-066-070>080-084-089>092-031900-
SOUTH CENTRAL AND SOUTHEAST INDIANA

CITY           SKY/WX    TMP DP  RH WIND       PRES   REMARKS
BLOOMINGTON    CLOUDY    71  65  81 N8        29.90S
6HR MIN TEMP:  68; 6HR MAX TEMP:  73;

MADISON *+     CLOUDY    73  66  78 NE6       29.90F
SEYMOUR +      CLOUDY    75  66  73 CALM      29.88F

$$




USA.gov is the U.S. government's official web portal to all federal, state and local government web resources and services.